QFA191 UMMS-YBHM

Flight info

Callsign QFA191
Flight time N/A
Altitude 29000
Route SORFO2G SORFO L979 ASKIL L736 LODKU M56 RORNA/K0911F310 M56 LUTUL L993 TUSEP N126 RULAD/K0919S0950 A460 XKC/K0909S1010 L888 SADAN Y1 OMBON W245 OVRAL B330 DAGDI W234 NIXID B330 QP/K0919S1070 B330 AVPAM A599 POU B330 TAMOT/N0498F350 B330 BIGEX A583 AKOTA W3 IOO W7 LUMVI B473 SAMGE/N0493F370 B473 CS Y177 AKROM Z17 OVRON
Aircraft B77W/H-SDE1E2E3FGHIJ2J3J4J5M1RWXY/LB1D1

Departure

Time 2026-05-07 14:53
Airport Minsk National Airport (UMMS)

Arrival

Time N/A
Airport Hamilton Island Airport (YBHM)
Time Latitude Longitude Altitude Speed Heading
2026-05-07 14:29 53.88902 28.03596 640 ft 0 kts 314°
2026-05-07 14:38 53.88896 28.03605 644 ft 3 kts 314°
2026-05-07 14:38 53.88883 28.03627 640 ft 3 kts 314°
2026-05-07 14:38 53.88871 28.03649 642 ft 3 kts 314°
2026-05-07 14:38 53.88858 28.03671 650 ft 3 kts 314°
2026-05-07 14:39 53.88854 28.03678 645 ft 0 kts 314°
2026-05-07 14:43 53.88855 28.03676 648 ft 1 kts 314°
2026-05-07 14:43 53.88864 28.03666 642 ft 2 kts 337°
2026-05-07 14:44 53.88880 28.03672 641 ft 3 kts 17°
2026-05-07 14:44 53.88901 28.03694 642 ft 4 kts 37°
2026-05-07 14:44 53.88923 28.03738 644 ft 5 kts 60°
2026-05-07 14:44 53.88920 28.03803 644 ft 7 kts 116°
2026-05-07 14:45 53.88895 28.03878 644 ft 8 kts 120°
2026-05-07 14:45 53.88863 28.03961 644 ft 9 kts 130°
2026-05-07 14:45 53.88820 28.04043 642 ft 10 kts 117°
2026-05-07 14:45 53.88835 28.04153 641 ft 10 kts 54°
2026-05-07 14:46 53.88885 28.04253 647 ft 12 kts 49°
2026-05-07 14:46 53.88940 28.04362 642 ft 13 kts 49°
2026-05-07 14:46 53.89001 28.04480 643 ft 14 kts 49°
2026-05-07 14:46 53.89066 28.04607 644 ft 15 kts 49°
2026-05-07 14:47 53.89134 28.04742 647 ft 16 kts 49°
2026-05-07 14:47 53.89207 28.04848 646 ft 12 kts
2026-05-07 14:47 53.89279 28.04769 644 ft 13 kts 317°
2026-05-07 14:47 53.89349 28.04664 644 ft 14 kts 319°
2026-05-07 14:48 53.89424 28.04553 647 ft 15 kts 319°
2026-05-07 14:48 53.89502 28.04435 648 ft 15 kts 318°
2026-05-07 14:48 53.89584 28.04313 644 ft 16 kts 319°
2026-05-07 14:48 53.89670 28.04185 646 ft 17 kts 319°
2026-05-07 14:49 53.89760 28.04052 644 ft 18 kts 319°
2026-05-07 14:49 53.89854 28.03912 642 ft 18 kts 318°
2026-05-07 14:49 53.89950 28.03766 647 ft 19 kts 318°
2026-05-07 14:49 53.90051 28.03613 645 ft 20 kts 319°
2026-05-07 14:50 53.90154 28.03463 644 ft 20 kts 319°
2026-05-07 14:50 53.90259 28.03309 644 ft 20 kts 319°
2026-05-07 14:50 53.90363 28.03155 642 ft 19 kts 321°
2026-05-07 14:50 53.90432 28.03167 647 ft 4 kts 51°
2026-05-07 14:51 53.90452 28.03208 644 ft 5 kts 49°
2026-05-07 14:51 53.90478 28.03257 645 ft 6 kts 47°
2026-05-07 14:51 53.90498 28.03320 644 ft 7 kts 79°
2026-05-07 14:51 53.90481 28.03394 645 ft 8 kts 131°
2026-05-07 14:52 53.90464 28.03421 648 ft 0 kts 140°
2026-05-07 14:52 53.90464 28.03422 648 ft 0 kts 140°
2026-05-07 14:52 53.90437 28.03460 645 ft 29 kts 140°
2026-05-07 14:53 53.90080 28.03989 645 ft 107 kts 139°
2026-05-07 14:53 53.89337 28.05101 644 ft 176 kts 139°
2026-05-07 14:53 53.88248 28.06591 841 ft 210 kts 143°
2026-05-07 14:53 53.87180 28.08119 1847 ft 201 kts 139°
2026-05-07 14:54 53.86188 28.09850 2522 ft 210 kts 136°
2026-05-07 14:54 53.85113 28.11720 2877 ft 232 kts 144°
2026-05-07 14:54 53.83831 28.13558 3120 ft 251 kts 140°
2026-05-07 14:54 53.82877 28.16129 3354 ft 270 kts 105°
2026-05-07 14:55 53.82772 28.19362 3730 ft 281 kts 90°
2026-05-07 14:55 53.82851 28.22700 4244 ft 287 kts 91°
2026-05-07 14:55 53.82928 28.26108 4882 ft 289 kts 91°
2026-05-07 14:55 53.82999 28.29499 5524 ft 290 kts 91°
2026-05-07 14:56 53.83068 28.32948 6139 ft 293 kts 91°
2026-05-07 14:56 53.83133 28.36413 6692 ft 296 kts 92°
2026-05-07 14:56 53.83196 28.39925 7185 ft 301 kts 91°
2026-05-07 14:56 53.83258 28.43494 7711 ft 304 kts 92°
2026-05-07 14:57 53.83317 28.47088 8238 ft 308 kts 92°
2026-05-07 14:57 53.83374 28.50725 8776 ft 311 kts 92°
2026-05-07 14:57 53.83430 28.54408 9308 ft 315 kts 92°
2026-05-07 14:57 53.83709 28.58112 9726 ft 322 kts 70°
2026-05-07 14:58 53.84868 28.61376 9821 ft 329 kts 41°
2026-05-07 14:58 53.86760 28.63368 9878 ft 318 kts 13°
2026-05-07 14:58 53.88907 28.64135 9924 ft 314 kts
2026-05-07 14:58 53.91080 28.64700 10393 ft 316 kts
2026-05-07 14:59 53.93228 28.65251 10943 ft 316 kts
2026-05-07 14:59 53.95412 28.65825 11467 ft 318 kts
2026-05-07 14:59 53.97610 28.66417 11974 ft 320 kts
2026-05-07 14:59 53.99819 28.67020 12498 ft 323 kts
2026-05-07 15:00 54.02044 28.67630 13004 ft 325 kts
2026-05-07 15:00 54.04310 28.68252 13302 ft 337 kts
2026-05-07 15:00 54.06687 28.68903 13431 ft 353 kts
2026-05-07 15:00 54.09160 28.69653 13553 ft 369 kts 13°
2026-05-07 15:01 54.11508 28.71608 13648 ft 390 kts 38°
2026-05-07 15:01 54.13512 28.74837 13773 ft 403 kts 44°
2026-05-07 15:01 54.15442 28.78083 13977 ft 416 kts 43°
2026-05-07 15:01 54.17547 28.81579 14369 ft 424 kts 43°
2026-05-07 15:02 54.19684 28.85098 14875 ft 430 kts 43°
2026-05-07 15:02 54.21848 28.88643 15460 ft 432 kts 43°
2026-05-07 15:02 54.24029 28.92207 16070 ft 435 kts 43°
2026-05-07 15:02 54.26226 28.95798 16643 ft 439 kts 43°
2026-05-07 15:03 54.28387 28.99491 17149 ft 440 kts 50°
2026-05-07 15:03 54.29953 29.03943 17486 ft 447 kts 71°
2026-05-07 15:03 54.30661 29.09174 17993 ft 445 kts 83°
2026-05-07 15:03 54.31147 29.14439 18404 ft 451 kts 82°
2026-05-07 15:04 54.31665 29.19689 18879 ft 454 kts 82°
2026-05-07 15:04 54.32219 29.25030 19422 ft 455 kts 81°
2026-05-07 15:04 54.32787 29.30375 19925 ft 458 kts 81°
2026-05-07 15:04 54.33359 29.35757 20369 ft 461 kts 81°
2026-05-07 15:05 54.33933 29.41184 20833 ft 465 kts 81°
2026-05-07 15:05 54.34512 29.46654 21314 ft 467 kts 81°
2026-05-07 15:05 54.35093 29.52153 21768 ft 470 kts 81°
2026-05-07 15:05 54.35676 29.57694 22195 ft 474 kts 82°
2026-05-07 15:06 54.36261 29.63294 22641 ft 477 kts 82°
2026-05-07 15:06 54.36841 29.68919 23050 ft 481 kts 82°
2026-05-07 15:06 54.37422 29.74608 23458 ft 484 kts 82°
2026-05-07 15:06 54.38004 29.80320 23812 ft 487 kts 82°
2026-05-07 15:07 54.38588 29.86053 24198 ft 489 kts 82°
2026-05-07 15:07 54.39165 29.91746 24569 ft 491 kts 82°
2026-05-07 15:07 54.39748 29.97544 24945 ft 493 kts 82°
2026-05-07 15:07 54.40332 30.03375 25303 ft 495 kts 81°
2026-05-07 15:08 54.40911 30.09199 25652 ft 497 kts 81°
2026-05-07 15:08 54.41494 30.15073 25992 ft 500 kts 81°
2026-05-07 15:08 54.42077 30.20967 26335 ft 502 kts 81°
2026-05-07 15:08 54.42660 30.26890 26669 ft 504 kts 81°
2026-05-07 15:09 54.43237 30.32824 26990 ft 506 kts 81°
2026-05-07 15:09 54.43812 30.38797 27310 ft 508 kts 81°
2026-05-07 15:09 54.44386 30.44801 27614 ft 510 kts 81°
2026-05-07 15:09 54.44961 30.50848 27905 ft 512 kts 82°
2026-05-07 15:10 54.45534 30.56891 28175 ft 514 kts 82°
2026-05-07 15:10 54.46107 30.62972 28453 ft 516 kts 81°
2026-05-07 15:10 54.46679 30.69073 28715 ft 519 kts 81°
2026-05-07 15:10 54.47251 30.75210 28955 ft 520 kts 81°
2026-05-07 15:11 54.47824 30.81385 29193 ft 522 kts 81°
2026-05-07 15:11 54.48393 30.87554 29431 ft 524 kts 81°
2026-05-07 15:11 54.48963 30.93765 29733 ft 523 kts 81°
2026-05-07 15:11 54.49525 30.99922 30080 ft 522 kts 81°
2026-05-07 15:12 54.50085 31.06097 30382 ft 521 kts 81°
2026-05-07 15:12 54.50451 31.10160 30580 ft 520 kts 81°
2026-05-07 15:12 54.50989 31.16322 30846 ft 520 kts 81°
2026-05-07 15:12 54.51512 31.22478 31101 ft 519 kts 82°
2026-05-07 15:13 54.52028 31.28628 31359 ft 518 kts 82°
2026-05-07 15:13 54.52540 31.34777 31573 ft 519 kts 82°
2026-05-07 15:13 54.53560 31.47101 31651 ft 520 kts 82°
2026-05-07 15:14 54.54571 31.59397 31649 ft 516 kts 82°
2026-05-07 15:14 54.55562 31.71589 31656 ft 513 kts 82°
2026-05-07 15:15 54.56538 31.83763 31654 ft 512 kts 82°
2026-05-07 15:15 54.57496 31.95860 31656 ft 513 kts 82°
2026-05-07 15:16 54.58448 32.08041 31660 ft 513 kts 82°
2026-05-07 15:16 54.59390 32.20264 31657 ft 514 kts 82°
2026-05-07 15:17 54.60319 32.32485 31653 ft 515 kts 82°
2026-05-07 15:17 54.61240 32.44763 31652 ft 515 kts 82°
2026-05-07 15:18 54.62141 32.56948 31650 ft 514 kts 82°
2026-05-07 15:18 54.63034 32.69191 31651 ft 514 kts 82°
2026-05-07 15:19 54.63914 32.81431 31651 ft 513 kts 82°
2026-05-07 15:19 54.64779 32.93658 31652 ft 512 kts 83°
2026-05-07 15:20 54.65633 33.05889 31655 ft 512 kts 83°
2026-05-07 15:20 54.66468 33.18024 31647 ft 512 kts 83°
2026-05-07 15:21 54.67295 33.30242 31646 ft 512 kts 83°
2026-05-07 15:21 54.68110 33.42456 31649 ft 512 kts 83°
2026-05-07 15:22 54.68913 33.54693 31648 ft 512 kts 83°
2026-05-07 15:22 54.69704 33.66923 31653 ft 512 kts 83°
2026-05-07 15:23 54.70487 33.79206 31652 ft 512 kts 83°
2026-05-07 15:23 54.71114 33.91473 31652 ft 512 kts 86°
2026-05-07 15:24 54.71418 34.03723 31815 ft 514 kts 87°
2026-05-07 15:24 54.71550 34.09889 32087 ft 512 kts 87°
2026-05-07 15:24 54.71683 34.16030 32366 ft 511 kts 87°
2026-05-07 15:25 54.71821 34.22168 32591 ft 510 kts 87°
2026-05-07 15:25 54.71963 34.28322 32720 ft 512 kts 87°
2026-05-07 15:25 54.72247 34.40688 32896 ft 515 kts 87°
2026-05-07 15:26 54.72386 34.46886 33028 ft 516 kts 87°
2026-05-07 15:26 54.72520 34.53017 33161 ft 516 kts 87°
2026-05-07 15:26 54.72652 34.59240 33274 ft 517 kts 87°
2026-05-07 15:26 54.72780 34.65482 33373 ft 518 kts 87°
2026-05-07 15:27 54.72905 34.71711 33474 ft 519 kts 87°
2026-05-07 15:27 54.73027 34.77942 33563 ft 520 kts 87°
2026-05-07 15:27 54.73262 34.90479 33661 ft 521 kts 87°
2026-05-07 15:28 54.73485 35.03005 33666 ft 521 kts 87°
2026-05-07 15:28 54.73696 35.15543 33667 ft 521 kts 87°
2026-05-07 15:29 54.73863 35.28078 33671 ft 521 kts 89°
2026-05-07 15:29 54.73874 35.40559 33665 ft 521 kts 89°
2026-05-07 15:30 54.73853 35.53086 33672 ft 519 kts 89°
2026-05-07 15:30 54.73842 35.65570 33664 ft 518 kts 89°
2026-05-07 15:31 54.73829 35.78017 33668 ft 516 kts 89°
2026-05-07 15:31 54.73804 35.90443 33672 ft 515 kts 89°
2026-05-07 15:32 54.73764 36.02828 33681 ft 513 kts 89°
2026-05-07 15:32 54.73713 36.15166 33679 ft 512 kts 89°
2026-05-07 15:33 54.73638 36.27409 33685 ft 511 kts 90°
2026-05-07 15:33 54.73536 36.39701 33681 ft 511 kts 90°
2026-05-07 15:34 54.73426 36.51987 33678 ft 510 kts 90°
2026-05-07 15:34 54.73307 36.64238 33680 ft 510 kts 90°
2026-05-07 15:35 54.73203 36.76530 33684 ft 509 kts 90°
2026-05-07 15:35 54.73111 36.88804 33689 ft 509 kts 90°
2026-05-07 15:36 54.73003 37.01041 33685 ft 509 kts 90°
2026-05-07 15:36 54.72878 37.13376 33682 ft 509 kts 90°
2026-05-07 15:37 54.72744 37.25563 33688 ft 509 kts 90°
2026-05-07 15:37 54.71877 37.37694 33691 ft 510 kts 104°
2026-05-07 15:38 54.69474 37.49224 33684 ft 510 kts 115°
2026-05-07 15:38 54.66363 37.60242 33688 ft 510 kts 116°
2026-05-07 15:39 54.63267 37.71234 33694 ft 509 kts 115°
2026-05-07 15:39 54.60215 37.82233 33688 ft 509 kts 115°
2026-05-07 15:40 54.57161 37.93238 33700 ft 508 kts 115°
2026-05-07 15:40 54.54111 38.04164 33696 ft 508 kts 115°
2026-05-07 15:41 54.51035 38.15197 33696 ft 507 kts 113°
2026-05-07 15:41 54.48768 38.26555 33703 ft 505 kts 102°
2026-05-07 15:42 54.47296 38.38338 33704 ft 504 kts 101°
2026-05-07 15:42 54.45803 38.50129 33698 ft 504 kts 102°
2026-05-07 15:43 54.44248 38.61970 33698 ft 504 kts 102°
2026-05-07 15:43 54.42696 38.73609 33693 ft 504 kts 102°
2026-05-07 15:44 54.41570 38.82010 33700 ft 503 kts 102°
2026-05-07 15:44 54.39993 38.93719 33687 ft 503 kts 102°
2026-05-07 15:45 54.38206 39.05341 33684 ft 503 kts 110°
2026-05-07 15:45 54.35539 39.16339 33694 ft 502 kts 113°
2026-05-07 15:46 54.31511 39.32994 33697 ft 502 kts 112°
2026-05-07 15:47 54.28847 39.43983 33700 ft 502 kts 112°
2026-05-07 15:47 54.26157 39.55007 33705 ft 502 kts 112°
2026-05-07 15:48 54.23463 39.65999 33707 ft 502 kts 112°
2026-05-07 15:48 54.20757 39.76991 33704 ft 502 kts 112°
2026-05-07 15:49 54.18040 39.87975 33709 ft 501 kts 112°
2026-05-07 15:49 54.15293 39.99027 33714 ft 501 kts 112°
2026-05-07 15:50 54.12563 40.09958 33711 ft 501 kts 112°
2026-05-07 15:50 54.10307 40.21075 33716 ft 499 kts 105°
2026-05-07 15:51 54.08380 40.32457 33705 ft 500 kts 105°
2026-05-07 15:51 54.06426 40.43821 33713 ft 499 kts 106°
2026-05-07 15:52 54.04436 40.55143 33708 ft 499 kts 106°
2026-05-07 15:52 54.02430 40.66436 33711 ft 499 kts 106°
2026-05-07 15:53 54.00414 40.77730 33710 ft 499 kts 106°
2026-05-07 15:53 53.98401 40.88950 33718 ft 499 kts 107°
2026-05-07 15:54 53.96354 41.00292 33713 ft 499 kts 107°
2026-05-07 15:54 53.94701 41.09665 33716 ft 498 kts 105°
2026-05-07 15:55 53.92575 41.22863 33723 ft 498 kts 105°
2026-05-07 15:55 53.91045 41.32367 33715 ft 498 kts 105°
2026-05-07 15:56 53.89186 41.43682 33722 ft 498 kts 105°
2026-05-07 15:56 53.87306 41.54980 33714 ft 497 kts 105°
2026-05-07 15:57 53.85420 41.66259 33719 ft 497 kts 105°
2026-05-07 15:57 53.83538 41.77443 33714 ft 497 kts 106°
2026-05-07 15:58 53.81609 41.88686 33719 ft 497 kts 106°
2026-05-07 15:58 53.79666 41.99899 33713 ft 497 kts 106°
2026-05-07 15:59 53.77712 42.11131 33722 ft 497 kts 106°
2026-05-07 15:59 53.75752 42.22341 33721 ft 496 kts 106°
2026-05-07 16:00 53.73788 42.33508 33724 ft 496 kts 106°
2026-05-07 16:00 53.71812 42.44673 33726 ft 496 kts 106°
2026-05-07 16:01 53.69841 42.55743 33724 ft 495 kts 107°
2026-05-07 16:01 53.67851 42.66863 33718 ft 495 kts 107°
2026-05-07 16:02 53.65992 42.78021 33717 ft 494 kts 104°
2026-05-07 16:02 53.64276 42.89247 33719 ft 493 kts 104°
2026-05-07 16:03 53.62543 43.00425 33730 ft 493 kts 104°
2026-05-07 16:03 53.60771 43.11584 33720 ft 492 kts 105°
2026-05-07 16:04 53.58983 43.22710 33725 ft 492 kts 105°
2026-05-07 16:04 53.57188 43.33807 33723 ft 491 kts 105°
2026-05-07 16:05 53.55384 43.44900 33725 ft 491 kts 105°
2026-05-07 16:05 53.53577 43.55943 33723 ft 490 kts 105°
2026-05-07 16:06 53.51759 43.66981 33732 ft 489 kts 105°
2026-05-07 16:06 53.49936 43.77986 33728 ft 489 kts 105°
2026-05-07 16:07 53.48117 43.88894 33728 ft 488 kts 105°
2026-05-07 16:07 53.46265 43.99874 33731 ft 488 kts 105°
2026-05-07 16:08 53.44407 44.10815 33742 ft 487 kts 105°
2026-05-07 16:08 53.42542 44.21742 33741 ft 487 kts 105°
2026-05-07 16:09 53.40671 44.32641 33467 ft 485 kts 105°
2026-05-07 16:09 53.39734 44.38078 33139 ft 485 kts 105°
2026-05-07 16:09 53.38796 44.43505 32879 ft 484 kts 105°
2026-05-07 16:09 53.37861 44.48903 32670 ft 482 kts 105°
2026-05-07 16:10 53.36921 44.54306 32389 ft 482 kts 106°
2026-05-07 16:10 53.35056 44.65051 32256 ft 481 kts 105°
2026-05-07 16:11 53.33183 44.75850 32267 ft 483 kts 106°
2026-05-07 16:11 53.32238 44.81269 32404 ft 485 kts 106°
2026-05-07 16:11 53.31292 44.86677 32654 ft 483 kts 106°
2026-05-07 16:12 53.29395 44.97478 32812 ft 485 kts 106°
2026-05-07 16:12 53.28441 45.02879 33061 ft 483 kts 106°
2026-05-07 16:12 53.27469 45.08175 33299 ft 482 kts 109°
2026-05-07 16:12 53.26355 45.13465 33427 ft 484 kts 109°
2026-05-07 16:13 53.25197 45.18757 33514 ft 486 kts 110°
2026-05-07 16:13 53.22844 45.29385 33704 ft 488 kts 110°
2026-05-07 16:13 53.21667 45.34725 33809 ft 489 kts 110°
2026-05-07 16:14 53.20497 45.40048 33906 ft 490 kts 110°
2026-05-07 16:14 53.18143 45.50759 34056 ft 492 kts 110°
2026-05-07 16:15 53.15782 45.61459 34211 ft 493 kts 110°
2026-05-07 16:15 53.13402 45.72183 34331 ft 492 kts 110°
2026-05-07 16:16 53.11014 45.82892 34341 ft 494 kts 110°
2026-05-07 16:16 53.08624 45.93632 34350 ft 496 kts 110°
2026-05-07 16:17 53.06236 46.04397 34348 ft 497 kts 110°
2026-05-07 16:17 53.03827 46.15189 34347 ft 498 kts 110°
2026-05-07 16:18 53.01420 46.25910 34346 ft 498 kts 110°
2026-05-07 16:18 52.98983 46.36710 34343 ft 498 kts 110°
2026-05-07 16:19 52.96547 46.47450 34335 ft 497 kts 110°
2026-05-07 16:19 52.94091 46.58144 34337 ft 496 kts 110°
2026-05-07 16:20 52.91624 46.68819 34337 ft 495 kts 110°
2026-05-07 16:20 52.89153 46.79476 34338 ft 494 kts 110°
2026-05-07 16:21 52.86699 46.90012 34334 ft 493 kts 110°
2026-05-07 16:21 52.84223 47.00592 34330 ft 493 kts 110°
2026-05-07 16:22 52.81741 47.11151 34332 ft 492 kts 110°
2026-05-07 16:22 52.79422 47.21792 34330 ft 492 kts 108°
2026-05-07 16:23 52.77212 47.32478 34336 ft 492 kts 108°
2026-05-07 16:23 52.74954 47.43155 34331 ft 492 kts 109°
2026-05-07 16:24 52.72685 47.53725 34323 ft 492 kts 109°
2026-05-07 16:24 52.70378 47.64412 34324 ft 492 kts 109°
2026-05-07 16:25 52.68083 47.74974 34329 ft 492 kts 109°
2026-05-07 16:25 52.65769 47.85586 34331 ft 492 kts 109°
2026-05-07 16:26 52.63447 47.96186 34328 ft 492 kts 109°
2026-05-07 16:26 52.61335 48.06905 34307 ft 492 kts 102°
2026-05-07 16:27 52.60378 48.18013 34325 ft 490 kts 91°
2026-05-07 16:27 52.60243 48.29222 34334 ft 491 kts 90°
2026-05-07 16:28 52.60130 48.40471 34327 ft 491 kts 90°
2026-05-07 16:28 52.59974 48.51709 34319 ft 492 kts 91°
2026-05-07 16:29 52.59789 48.62899 34321 ft 492 kts 91°
2026-05-07 16:29 52.59589 48.74160 34321 ft 492 kts 91°
2026-05-07 16:30 52.59379 48.85405 34325 ft 492 kts 91°
2026-05-07 16:30 52.59159 48.96686 34314 ft 492 kts 91°
2026-05-07 16:31 52.58929 49.07940 34312 ft 492 kts 91°
2026-05-07 16:31 52.58689 49.19183 34325 ft 492 kts 91°
2026-05-07 16:32 52.58439 49.30371 34315 ft 491 kts 91°
2026-05-07 16:32 52.58178 49.41596 34311 ft 491 kts 91°
2026-05-07 16:33 52.57906 49.52816 34315 ft 490 kts 92°
2026-05-07 16:33 52.57624 49.64008 34309 ft 490 kts 92°
2026-05-07 16:34 52.57332 49.75209 34309 ft 490 kts 92°
2026-05-07 16:34 52.57030 49.86403 34302 ft 489 kts 92°
2026-05-07 16:35 52.56721 49.97512 34307 ft 489 kts 92°
2026-05-07 16:35 52.56323 50.08678 34299 ft 489 kts 94°
2026-05-07 16:36 52.55855 50.19835 34299 ft 489 kts 94°
2026-05-07 16:36 52.55388 50.30983 34299 ft 489 kts 94°
2026-05-07 16:37 52.55002 50.40253 34295 ft 489 kts 94°
2026-05-07 16:37 52.54452 50.53212 34291 ft 489 kts 94°
2026-05-07 16:38 52.54046 50.62541 34292 ft 488 kts 94°
2026-05-07 16:38 52.53544 50.73594 34281 ft 488 kts 94°
2026-05-07 16:39 52.53028 50.84718 34287 ft 488 kts 95°
2026-05-07 16:39 52.52505 50.95835 34284 ft 488 kts 95°
2026-05-07 16:40 52.51976 51.06936 34289 ft 488 kts 95°
2026-05-07 16:40 52.51440 51.18041 34287 ft 488 kts 95°
2026-05-07 16:41 52.50893 51.29142 34290 ft 487 kts 95°
2026-05-07 16:41 52.50337 51.40220 34289 ft 487 kts 95°
2026-05-07 16:42 52.49770 51.51295 34301 ft 486 kts 95°
2026-05-07 16:42 52.49196 51.62308 34292 ft 484 kts 95°
2026-05-07 16:43 52.48611 51.73320 34296 ft 483 kts 95°
2026-05-07 16:43 52.48020 51.84275 34294 ft 481 kts 95°
2026-05-07 16:44 52.47419 51.95208 34298 ft 480 kts 95°
2026-05-07 16:44 52.46815 52.06011 34299 ft 479 kts 95°
2026-05-07 16:45 52.46198 52.16879 34298 ft 477 kts 95°
2026-05-07 16:45 52.45573 52.27703 34301 ft 476 kts 95°
2026-05-07 16:46 52.44941 52.38498 34302 ft 476 kts 95°
2026-05-07 16:46 52.44300 52.49283 34302 ft 475 kts 95°
2026-05-07 16:47 52.43663 52.60018 34308 ft 475 kts 95°
2026-05-07 16:47 52.43019 52.70798 34307 ft 476 kts 95°
2026-05-07 16:48 52.42379 52.81341 34310 ft 476 kts 95°
2026-05-07 16:48 52.41712 52.92138 34310 ft 477 kts 95°
2026-05-07 16:49 52.41037 53.02942 34317 ft 477 kts 95°
2026-05-07 16:49 52.40335 53.13773 34312 ft 478 kts 96°
2026-05-07 16:50 52.39609 53.24577 34314 ft 478 kts 96°
2026-05-07 16:50 52.38873 53.35403 34312 ft 478 kts 96°
2026-05-07 16:51 52.38131 53.46208 34313 ft 478 kts 96°
2026-05-07 16:51 52.37383 53.56972 34312 ft 478 kts 96°
2026-05-07 16:52 52.36622 53.67782 34310 ft 478 kts 96°
2026-05-07 16:52 52.35849 53.78604 34310 ft 478 kts 96°
2026-05-07 16:53 52.35073 53.89347 34308 ft 478 kts 96°
2026-05-07 16:53 52.34282 54.00140 34309 ft 478 kts 97°
2026-05-07 16:54 52.33483 54.10923 34304 ft 477 kts 97°
2026-05-07 16:54 52.32674 54.21694 34303 ft 477 kts 97°
2026-05-07 16:55 52.31859 54.32443 34304 ft 476 kts 97°
2026-05-07 16:55 52.31096 54.43189 34301 ft 475 kts 96°
2026-05-07 16:56 52.30386 54.53913 34301 ft 475 kts 96°
2026-05-07 16:56 52.29292 54.69981 34298 ft 474 kts 96°
2026-05-07 16:57 52.28542 54.80669 34293 ft 473 kts 96°
2026-05-07 16:57 52.27782 54.91350 34290 ft 473 kts 97°
2026-05-07 16:58 52.27014 55.02015 34291 ft 473 kts 97°
2026-05-07 16:58 52.26236 55.12678 34289 ft 473 kts 97°
2026-05-07 16:59 52.25454 55.23273 34287 ft 473 kts 97°
2026-05-07 16:59 52.24657 55.33933 34284 ft 474 kts 97°
2026-05-07 17:00 52.24176 55.40293 34288 ft 474 kts 97°
2026-05-07 17:00 52.23528 55.48829 34288 ft 474 kts 98°
2026-05-07 17:01 52.22704 55.59515 34289 ft 474 kts 98°
2026-05-07 17:01 52.21865 55.70188 34290 ft 474 kts 98°
2026-05-07 17:02 52.21020 55.80833 34284 ft 473 kts 98°
2026-05-07 17:02 52.20166 55.91481 34290 ft 472 kts 98°
2026-05-07 17:03 52.19313 56.02013 34296 ft 471 kts 99°
2026-05-07 17:03 52.18446 56.12598 34296 ft 470 kts 99°
2026-05-07 17:04 52.17571 56.23155 34292 ft 469 kts 99°
2026-05-07 17:04 52.16688 56.33680 34293 ft 468 kts 99°
2026-05-07 17:05 52.15800 56.44172 34296 ft 467 kts 99°
2026-05-07 17:05 52.14904 56.54654 34293 ft 467 kts 99°
2026-05-07 17:06 52.13998 56.65144 34297 ft 468 kts 99°
2026-05-07 17:06 52.13079 56.75661 34298 ft 469 kts 99°
2026-05-07 17:07 52.12149 56.86198 34301 ft 471 kts 99°
2026-05-07 17:07 52.11208 56.96753 34304 ft 473 kts 100°
2026-05-07 17:08 52.10259 57.07292 34300 ft 475 kts 100°
2026-05-07 17:08 52.09290 57.17934 34309 ft 476 kts 100°
2026-05-07 17:09 52.08309 57.28606 34308 ft 477 kts 101°
2026-05-07 17:09 52.07321 57.39241 34312 ft 478 kts 101°
2026-05-07 17:10 52.06317 57.49938 34311 ft 479 kts 101°
2026-05-07 17:10 52.05304 57.60620 34311 ft 478 kts 102°
2026-05-07 17:11 52.04283 57.71288 34311 ft 477 kts 102°
2026-05-07 17:11 52.03255 57.81931 34308 ft 476 kts 102°
2026-05-07 17:12 52.02219 57.92540 34309 ft 474 kts 102°
2026-05-07 17:12 52.01181 58.03092 34308 ft 473 kts 103°
2026-05-07 17:13 52.00281 58.13656 34320 ft 472 kts 101°
2026-05-07 17:13 51.99534 58.24243 34307 ft 471 kts 100°
2026-05-07 17:14 51.98774 58.34793 34310 ft 470 kts 101°
2026-05-07 17:14 51.97978 58.45318 34305 ft 470 kts 101°
2026-05-07 17:15 51.97166 58.55763 34307 ft 469 kts 101°
2026-05-07 17:15 51.96337 58.66274 34299 ft 469 kts 101°
2026-05-07 17:16 51.95503 58.76763 34302 ft 469 kts 101°
2026-05-07 17:16 51.94659 58.87258 34309 ft 470 kts 102°
2026-05-07 17:17 51.93803 58.97781 34308 ft 470 kts 102°
2026-05-07 17:17 51.92937 59.08304 34309 ft 471 kts 102°
2026-05-07 17:18 51.92067 59.18764 34311 ft 472 kts 102°
2026-05-07 17:18 51.91180 59.29307 34313 ft 472 kts 102°
2026-05-07 17:19 51.90283 59.39863 34313 ft 473 kts 102°
2026-05-07 17:19 51.89376 59.50421 34312 ft 474 kts 102°
2026-05-07 17:20 51.88457 59.60991 34324 ft 474 kts 102°
2026-05-07 17:20 51.87533 59.71512 34315 ft 475 kts 102°
2026-05-07 17:21 51.86589 59.82158 34318 ft 476 kts 102°
2026-05-07 17:21 51.85644 59.92689 34323 ft 476 kts 102°
2026-05-07 17:22 51.84683 60.03297 34321 ft 477 kts 102°
2026-05-07 17:22 51.83711 60.13922 34325 ft 478 kts 102°
2026-05-07 17:23 51.82893 60.22773 34325 ft 478 kts 102°
2026-05-07 17:23 51.81904 60.33402 34321 ft 479 kts 102°
2026-05-07 17:24 51.80742 60.44010 34331 ft 478 kts 105°
2026-05-07 17:24 51.79353 60.54538 34309 ft 479 kts 106°
2026-05-07 17:25 51.77938 60.65077 34324 ft 480 kts 106°
2026-05-07 17:25 51.76531 60.75626 34320 ft 481 kts 106°
2026-05-07 17:26 51.75133 60.86121 34320 ft 482 kts 106°
2026-05-07 17:26 51.73716 60.96703 34328 ft 483 kts 106°
2026-05-07 17:27 51.72284 61.07314 34323 ft 484 kts 106°
2026-05-07 17:27 51.70840 61.17929 34321 ft 485 kts 106°
2026-05-07 17:28 51.69383 61.28564 34319 ft 486 kts 106°
2026-05-07 17:28 51.67917 61.39192 34323 ft 487 kts 107°
2026-05-07 17:29 51.66434 61.49857 34318 ft 488 kts 107°
2026-05-07 17:29 51.64941 61.60525 34316 ft 489 kts 107°
2026-05-07 17:30 51.63445 61.71138 34317 ft 489 kts 107°
2026-05-07 17:30 51.61929 61.81813 34318 ft 490 kts 107°
2026-05-07 17:31 51.60396 61.92533 34316 ft 491 kts 107°
2026-05-07 17:31 51.58852 62.03254 34320 ft 492 kts 107°
2026-05-07 17:32 51.57296 62.13984 34319 ft 492 kts 107°
2026-05-07 17:32 51.55731 62.24702 34320 ft 493 kts 107°
2026-05-07 17:33 51.54163 62.35367 34324 ft 493 kts 107°
2026-05-07 17:33 51.52571 62.46120 34325 ft 494 kts 108°
2026-05-07 17:34 51.50975 62.56833 34326 ft 494 kts 108°
2026-05-07 17:34 51.49366 62.67552 34328 ft 494 kts 108°
2026-05-07 17:35 51.47749 62.78254 34327 ft 493 kts 108°
2026-05-07 17:35 51.46121 62.88953 34326 ft 493 kts 108°
2026-05-07 17:36 51.44486 62.99633 34330 ft 493 kts 108°
2026-05-07 17:36 51.42849 63.10255 34327 ft 493 kts 108°
2026-05-07 17:37 51.41191 63.20939 34328 ft 493 kts 108°
2026-05-07 17:37 51.39523 63.31614 34321 ft 494 kts 108°
2026-05-07 17:38 51.37846 63.42286 34323 ft 494 kts 108°
2026-05-07 17:38 51.36168 63.52889 34328 ft 495 kts 108°
2026-05-07 17:39 51.34464 63.63586 34320 ft 496 kts 108°
2026-05-07 17:39 51.32750 63.74277 34328 ft 497 kts 108°
2026-05-07 17:40 51.31024 63.84979 34325 ft 498 kts 109°
2026-05-07 17:40 51.29281 63.95713 34323 ft 499 kts 109°
2026-05-07 17:41 51.27539 64.06372 34324 ft 500 kts 109°
2026-05-07 17:41 51.25773 64.17116 34318 ft 500 kts 109°
2026-05-07 17:42 51.23995 64.27861 34317 ft 501 kts 109°
2026-05-07 17:42 51.22207 64.38605 34320 ft 501 kts 109°
2026-05-07 17:43 51.20408 64.49343 34314 ft 501 kts 109°
2026-05-07 17:43 51.18611 64.60003 34318 ft 501 kts 109°
2026-05-07 17:44 51.16790 64.70734 34309 ft 501 kts 110°
2026-05-07 17:44 51.14962 64.81441 34314 ft 501 kts 110°
2026-05-07 17:45 51.13126 64.92136 34308 ft 501 kts 110°
2026-05-07 17:45 51.11274 65.02851 34320 ft 501 kts 110°
2026-05-07 17:46 51.09417 65.13537 34323 ft 502 kts 110°
2026-05-07 17:46 51.07556 65.24176 34323 ft 502 kts 110°
2026-05-07 17:47 51.05674 65.34873 34324 ft 503 kts 110°
2026-05-07 17:47 51.03774 65.45605 34318 ft 504 kts 110°
2026-05-07 17:48 51.01865 65.56324 34328 ft 505 kts 110°
2026-05-07 17:48 50.99946 65.67040 34316 ft 505 kts 110°
2026-05-07 17:49 50.98015 65.77758 34323 ft 506 kts 110°
2026-05-07 17:49 50.96063 65.88528 34334 ft 507 kts 110°
2026-05-07 17:50 50.94103 65.99275 34331 ft 507 kts 110°
2026-05-07 17:50 50.92145 66.09952 34334 ft 508 kts 110°
2026-05-07 17:51 50.90159 66.20722 34333 ft 508 kts 110°
2026-05-07 17:51 50.88165 66.31466 34333 ft 508 kts 110°
2026-05-07 17:52 50.86164 66.42191 34338 ft 508 kts 110°
2026-05-07 17:52 50.84146 66.52940 34340 ft 508 kts 110°
2026-05-07 17:53 50.82124 66.63654 34337 ft 508 kts 111°
2026-05-07 17:53 50.80090 66.74363 34343 ft 508 kts 111°
2026-05-07 17:54 50.78061 66.84990 34348 ft 508 kts 111°
2026-05-07 17:54 50.76008 66.95683 34345 ft 508 kts 111°
2026-05-07 17:55 50.73947 67.06356 34350 ft 509 kts 111°
2026-05-07 17:55 50.71869 67.17060 34353 ft 509 kts 110°
2026-05-07 17:56 50.69783 67.27742 34348 ft 510 kts 110°
2026-05-07 17:56 50.67686 67.38422 34350 ft 511 kts 110°
2026-05-07 17:57 50.65928 67.47329 34366 ft 511 kts 110°
2026-05-07 17:57 50.63442 67.59857 34363 ft 513 kts 110°
2026-05-07 17:58 50.61300 67.70586 34361 ft 514 kts 110°
2026-05-07 17:58 50.59157 67.81264 34361 ft 515 kts 111°
2026-05-07 17:59 50.56984 67.92034 34367 ft 516 kts 111°
2026-05-07 17:59 50.54797 68.02822 34366 ft 517 kts 111°
2026-05-07 18:00 50.52319 68.13411 34366 ft 514 kts 118°
2026-05-07 18:00 50.48780 68.23091 34370 ft 510 kts 127°
2026-05-07 18:01 50.44917 68.32432 34370 ft 511 kts 127°
2026-05-07 18:01 50.41053 68.41821 34367 ft 512 kts 127°
2026-05-07 18:02 50.35314 68.55856 34373 ft 512 kts 126°
2026-05-07 18:03 50.31462 68.65263 34381 ft 513 kts 127°
2026-05-07 18:03 50.27602 68.74647 34377 ft 513 kts 127°
2026-05-07 18:04 50.23733 68.84016 34373 ft 513 kts 127°
2026-05-07 18:04 50.19856 68.93368 34374 ft 513 kts 127°
2026-05-07 18:05 50.15964 69.02724 34377 ft 513 kts 127°
2026-05-07 18:05 50.12090 69.12006 34379 ft 513 kts 127°
2026-05-07 18:06 50.08187 69.21322 34378 ft 514 kts 127°
2026-05-07 18:06 50.04270 69.30639 34375 ft 514 kts 127°
2026-05-07 18:07 50.00348 69.39936 34378 ft 514 kts 127°
2026-05-07 18:07 49.96416 69.49223 34382 ft 514 kts 127°
2026-05-07 18:08 49.92470 69.58511 34383 ft 515 kts 127°
2026-05-07 18:08 49.89185 69.66216 34383 ft 515 kts 127°
2026-05-07 18:09 49.85225 69.75478 34387 ft 515 kts 127°
2026-05-07 18:09 49.81253 69.84734 34387 ft 515 kts 127°
2026-05-07 18:10 49.77276 69.93969 34389 ft 516 kts 127°
2026-05-07 18:10 49.73288 70.03198 34386 ft 516 kts 127°
2026-05-07 18:11 49.69286 70.12428 34386 ft 517 kts 127°
2026-05-07 18:11 49.65308 70.21569 34386 ft 517 kts 127°
2026-05-07 18:12 49.61279 70.30797 34389 ft 518 kts 127°
2026-05-07 18:12 49.57247 70.40000 34391 ft 518 kts 128°
2026-05-07 18:13 49.53199 70.49206 34388 ft 519 kts 128°
2026-05-07 18:13 49.49130 70.58429 34392 ft 520 kts 128°
2026-05-07 18:14 49.45062 70.67618 34388 ft 520 kts 128°
2026-05-07 18:14 49.40987 70.76789 34390 ft 520 kts 128°
2026-05-07 18:15 49.36922 70.85908 34394 ft 521 kts 128°
2026-05-07 18:15 49.32827 70.95064 34393 ft 521 kts 128°
2026-05-07 18:16 49.28724 71.04206 34400 ft 521 kts 128°
2026-05-07 18:16 49.24602 71.13357 34397 ft 521 kts 128°
2026-05-07 18:17 49.20475 71.22489 34399 ft 522 kts 128°
2026-05-07 18:17 49.16342 71.31603 34398 ft 522 kts 128°
2026-05-07 18:18 49.12186 71.40738 34399 ft 522 kts 128°
2026-05-07 18:18 49.08053 71.49788 34398 ft 523 kts 128°
2026-05-07 18:19 49.03881 71.58897 34399 ft 524 kts 128°
2026-05-07 18:19 48.99697 71.67997 34404 ft 525 kts 128°
2026-05-07 18:20 48.95501 71.77094 34398 ft 526 kts 129°
2026-05-07 18:20 48.91287 71.86201 34399 ft 527 kts 129°
2026-05-07 18:21 48.87059 71.95307 34402 ft 527 kts 129°
2026-05-07 18:21 48.82820 72.04403 34400 ft 528 kts 129°
2026-05-07 18:22 48.78569 72.13497 34397 ft 528 kts 129°
2026-05-07 18:22 48.74311 72.22574 34402 ft 528 kts 129°
2026-05-07 18:23 48.70052 72.31622 34403 ft 527 kts 129°
2026-05-07 18:23 48.65815 72.40595 34404 ft 527 kts 129°
2026-05-07 18:24 48.61549 72.49599 34409 ft 527 kts 130°
2026-05-07 18:24 48.57549 72.58012 34406 ft 527 kts 130°
2026-05-07 18:25 48.55524 72.62262 34403 ft 527 kts 130°
2026-05-07 18:25 48.51240 72.71232 34407 ft 526 kts 130°
2026-05-07 18:26 48.46947 72.80191 34404 ft 527 kts 130°
2026-05-07 18:26 48.42650 72.89126 34405 ft 527 kts 130°
2026-05-07 18:27 48.38342 72.98058 34406 ft 527 kts 130°
2026-05-07 18:27 48.34022 73.06983 34406 ft 528 kts 130°
2026-05-07 18:28 48.29718 73.15848 34409 ft 528 kts 130°
2026-05-07 18:28 48.25374 73.24765 34420 ft 529 kts 130°
2026-05-07 18:29 48.21025 73.33662 34393 ft 529 kts 130°
2026-05-07 18:29 48.16662 73.42563 34408 ft 529 kts 130°
2026-05-07 18:30 48.12297 73.51440 34403 ft 529 kts 130°
2026-05-07 18:30 48.07812 73.60139 34401 ft 527 kts 133°
2026-05-07 18:31 48.03087 73.68503 34395 ft 526 kts 134°
2026-05-07 18:31 47.98368 73.76770 34385 ft 526 kts 134°
2026-05-07 18:32 47.93639 73.85085 34393 ft 525 kts 134°
2026-05-07 18:32 47.88914 73.93404 34384 ft 525 kts 133°
2026-05-07 18:33 47.84185 74.01711 34386 ft 525 kts 133°
2026-05-07 18:33 47.79449 74.10002 34383 ft 526 kts 133°
2026-05-07 18:34 47.74706 74.18278 34379 ft 526 kts 133°
2026-05-07 18:34 47.69975 74.26505 34379 ft 527 kts 133°
2026-05-07 18:35 47.65197 74.34791 34382 ft 529 kts 133°
2026-05-07 18:35 47.60400 74.43084 34379 ft 530 kts 133°
2026-05-07 18:36 47.55590 74.51372 34371 ft 531 kts 133°
2026-05-07 18:36 47.50759 74.59673 34373 ft 532 kts 133°
2026-05-07 18:37 47.45916 74.67968 34370 ft 533 kts 133°
2026-05-07 18:37 47.41064 74.76253 34358 ft 532 kts 133°
2026-05-07 18:38 47.36231 74.84482 34352 ft 529 kts 133°
2026-05-07 18:38 47.31447 74.92601 34356 ft 526 kts 133°
2026-05-07 18:39 47.26651 75.00717 34353 ft 523 kts 133°
2026-05-07 18:39 47.21870 75.08781 34349 ft 521 kts 132°
2026-05-07 18:40 47.17103 75.16799 34352 ft 519 kts 132°
2026-05-07 18:40 47.12350 75.24770 34353 ft 519 kts 132°
2026-05-07 18:41 47.07581 75.32742 34353 ft 519 kts 132°
2026-05-07 18:41 47.02806 75.40703 34350 ft 520 kts 132°
2026-05-07 18:42 46.98012 75.48673 34349 ft 521 kts 132°
2026-05-07 18:42 46.93244 75.56574 34347 ft 522 kts 132°
2026-05-07 18:43 46.88427 75.64534 34345 ft 522 kts 132°
2026-05-07 18:43 46.83608 75.72475 34346 ft 522 kts 132°
2026-05-07 18:44 46.78789 75.80391 34349 ft 521 kts 132°
2026-05-07 18:44 46.73972 75.88283 34342 ft 519 kts 132°
2026-05-07 18:45 46.69196 75.96084 34351 ft 518 kts 132°
2026-05-07 18:45 46.64401 76.03893 34350 ft 516 kts 133°
2026-05-07 18:46 46.59619 76.11660 34346 ft 515 kts 133°
2026-05-07 18:46 46.54846 76.19389 34352 ft 513 kts 133°
2026-05-07 18:47 46.50077 76.27091 34345 ft 512 kts 133°
2026-05-07 18:47 46.45311 76.34765 34349 ft 511 kts 133°
2026-05-07 18:48 46.40561 76.42393 34348 ft 509 kts 133°
2026-05-07 18:48 46.35809 76.50007 34345 ft 508 kts 133°
2026-05-07 18:49 46.31063 76.57579 34345 ft 508 kts 133°
2026-05-07 18:49 46.26319 76.65118 34348 ft 507 kts 133°
2026-05-07 18:50 46.21567 76.72651 34350 ft 507 kts 133°
2026-05-07 18:50 46.16816 76.80165 34354 ft 506 kts 133°
2026-05-07 18:51 46.12059 76.87670 34350 ft 506 kts 134°
2026-05-07 18:51 46.07340 76.95094 34348 ft 505 kts 134°
2026-05-07 18:52 46.03358 77.01343 34353 ft 505 kts 134°
2026-05-07 18:52 45.97838 77.09981 34353 ft 504 kts 134°
2026-05-07 18:53 45.93090 77.17389 34354 ft 504 kts 134°
2026-05-07 18:53 45.88341 77.24780 34348 ft 503 kts 134°
2026-05-07 18:54 45.84393 77.30908 34355 ft 502 kts 134°
2026-05-07 18:54 45.79643 77.38262 34354 ft 502 kts 134°
2026-05-07 18:55 45.74907 77.45576 34357 ft 501 kts 134°
2026-05-07 18:55 45.70162 77.52883 34357 ft 501 kts 134°
2026-05-07 18:56 45.65402 77.60195 34363 ft 500 kts 134°
2026-05-07 18:56 45.60655 77.67466 34365 ft 500 kts 134°
2026-05-07 18:57 45.55942 77.74668 34367 ft 499 kts 134°
2026-05-07 18:57 45.51191 77.81906 34365 ft 499 kts 134°
2026-05-07 18:58 45.46445 77.89120 34369 ft 499 kts 134°
2026-05-07 18:58 45.41697 77.96317 34386 ft 498 kts 134°
2026-05-07 18:59 45.36952 78.03490 34373 ft 498 kts 134°
2026-05-07 18:59 45.32196 78.10662 34372 ft 498 kts 134°
2026-05-07 19:00 45.27445 78.17807 34376 ft 497 kts 134°
2026-05-07 19:00 45.22716 78.24902 34391 ft 497 kts 134°
2026-05-07 19:01 45.17963 78.32014 34383 ft 497 kts 134°
2026-05-07 19:01 45.13203 78.39121 34391 ft 496 kts 135°
2026-05-07 19:02 45.08481 78.46242 34420 ft 496 kts 133°
2026-05-07 19:02 45.03944 78.53617 34421 ft 496 kts 132°
2026-05-07 19:03 44.99429 78.61011 34435 ft 497 kts 132°
2026-05-07 19:03 44.94878 78.68351 34444 ft 497 kts 133°
2026-05-07 19:04 44.90333 78.75629 34463 ft 497 kts 133°
2026-05-07 19:04 44.85745 78.82965 34461 ft 498 kts 133°
2026-05-07 19:05 44.81007 78.90082 34486 ft 498 kts 136°
2026-05-07 19:05 44.76115 78.96999 34501 ft 498 kts 136°
2026-05-07 19:06 44.71239 79.03947 34506 ft 499 kts 136°
2026-05-07 19:06 44.63963 79.14414 34504 ft 499 kts 136°
2026-05-07 19:07 44.59108 79.21380 34511 ft 498 kts 136°
2026-05-07 19:07 44.54254 79.28322 34510 ft 498 kts 136°
2026-05-07 19:08 44.49402 79.35240 34504 ft 497 kts 136°
2026-05-07 19:08 44.44579 79.42102 34495 ft 497 kts 136°
2026-05-07 19:09 44.39726 79.48993 34482 ft 497 kts 136°
2026-05-07 19:09 44.34872 79.55869 34460 ft 496 kts 136°
2026-05-07 19:10 44.30022 79.62723 34446 ft 495 kts 136°
2026-05-07 19:10 44.25182 79.69546 34433 ft 495 kts 136°
2026-05-07 19:11 44.20338 79.76356 34415 ft 494 kts 136°
2026-05-07 19:11 44.15495 79.83150 34405 ft 493 kts 136°
2026-05-07 19:12 44.10652 79.89930 34395 ft 493 kts 136°
2026-05-07 19:12 44.05843 79.96636 34388 ft 492 kts 136°
2026-05-07 19:13 44.01003 80.03359 34380 ft 492 kts 136°
2026-05-07 19:13 43.96162 80.10070 34380 ft 491 kts 136°
2026-05-07 19:14 43.91326 80.16760 34376 ft 491 kts 136°
2026-05-07 19:14 43.86480 80.23451 34380 ft 491 kts 136°
2026-05-07 19:15 43.81666 80.30080 34383 ft 491 kts 136°
2026-05-07 19:15 43.76817 80.36741 34388 ft 491 kts 136°
2026-05-07 19:16 43.71967 80.43387 34394 ft 491 kts 136°
2026-05-07 19:16 43.67109 80.50029 34405 ft 491 kts 136°
2026-05-07 19:17 43.62250 80.56656 34423 ft 491 kts 136°
2026-05-07 19:17 43.57394 80.63265 34436 ft 491 kts 136°
2026-05-07 19:18 43.52524 80.69878 34454 ft 491 kts 135°
2026-05-07 19:18 43.47626 80.76434 34467 ft 490 kts 137°
2026-05-07 19:19 43.42595 80.82779 34487 ft 491 kts 138°
2026-05-07 19:19 43.37538 80.89079 34493 ft 491 kts 137°
2026-05-07 19:20 43.32524 80.95361 34506 ft 490 kts 137°
2026-05-07 19:20 43.27492 81.01684 34516 ft 490 kts 137°
2026-05-07 19:21 43.22465 81.07991 34522 ft 489 kts 137°
2026-05-07 19:21 43.17425 81.14299 34523 ft 489 kts 137°
2026-05-07 19:22 43.12400 81.20570 34534 ft 489 kts 137°
2026-05-07 19:22 43.07399 81.26797 34538 ft 489 kts 137°
2026-05-07 19:23 43.02356 81.33061 34545 ft 489 kts 137°
2026-05-07 19:23 42.97301 81.39326 34555 ft 489 kts 136°
2026-05-07 19:24 42.92282 81.45532 34573 ft 490 kts 136°
2026-05-07 19:24 42.87221 81.51776 34587 ft 491 kts 136°
2026-05-07 19:25 42.82144 81.58026 34600 ft 492 kts 136°
2026-05-07 19:25 42.77063 81.64267 34610 ft 492 kts 136°
2026-05-07 19:26 42.71972 81.70508 34622 ft 493 kts 136°
2026-05-07 19:26 42.66845 81.76686 34640 ft 493 kts 139°
2026-05-07 19:27 42.61509 81.82559 34646 ft 493 kts 140°
2026-05-07 19:27 42.56182 81.88330 34645 ft 492 kts 140°
2026-05-07 19:28 42.50864 81.94158 34647 ft 492 kts 139°
2026-05-07 19:28 42.45555 82.00006 34635 ft 491 kts 139°
2026-05-07 19:29 42.40240 82.05849 34628 ft 491 kts 139°
2026-05-07 19:29 42.34930 82.11668 34623 ft 491 kts 139°
2026-05-07 19:30 42.29609 82.17486 34593 ft 491 kts 139°
2026-05-07 19:30 42.24327 82.23247 34564 ft 490 kts 139°
2026-05-07 19:31 42.19025 82.29021 34551 ft 489 kts 139°
2026-05-07 19:31 42.13735 82.34770 34521 ft 488 kts 139°
2026-05-07 19:32 42.08443 82.40512 34512 ft 487 kts 139°
2026-05-07 19:32 42.03153 82.46239 34506 ft 487 kts 139°
2026-05-07 19:33 41.97900 82.51913 34484 ft 487 kts 139°
2026-05-07 19:33 41.92605 82.57619 34476 ft 488 kts 139°
2026-05-07 19:34 41.87304 82.63320 34492 ft 488 kts 139°
2026-05-07 19:34 41.82002 82.69011 34466 ft 488 kts 139°
2026-05-07 19:35 41.76705 82.74684 34463 ft 487 kts 139°
2026-05-07 19:35 41.71404 82.80357 34461 ft 487 kts 138°
2026-05-07 19:36 41.66675 82.86765 34456 ft 482 kts 127°
2026-05-07 19:36 41.62891 82.94038 34462 ft 478 kts 120°
2026-05-07 19:37 41.59325 83.01533 34453 ft 478 kts 120°
2026-05-07 19:37 41.55736 83.09016 34452 ft 478 kts 120°
2026-05-07 19:38 41.52129 83.16460 34456 ft 478 kts 120°
2026-05-07 19:38 41.48505 83.23898 34455 ft 478 kts 120°
2026-05-07 19:39 41.44876 83.31328 34452 ft 478 kts 121°
2026-05-07 19:39 41.41856 83.37498 34452 ft 478 kts 121°
2026-05-07 19:40 41.37630 83.46115 34451 ft 478 kts 121°
2026-05-07 19:40 41.34570 83.52338 34451 ft 479 kts 121°
2026-05-07 19:41 41.30924 83.59738 34448 ft 479 kts 121°
2026-05-07 19:41 41.27261 83.67153 34450 ft 480 kts 121°
2026-05-07 19:42 41.23613 83.74521 34449 ft 480 kts 121°
2026-05-07 19:42 41.19932 83.81937 34450 ft 481 kts 121°
2026-05-07 19:43 41.16243 83.89351 34444 ft 481 kts 121°
2026-05-07 19:43 41.12549 83.96758 34451 ft 481 kts 121°
2026-05-07 19:44 41.08848 84.04162 34446 ft 481 kts 122°
2026-05-07 19:44 41.05148 84.11544 34449 ft 481 kts 122°
2026-05-07 19:45 41.01435 84.18937 34451 ft 481 kts 122°
2026-05-07 19:45 40.97718 84.26318 34448 ft 481 kts 122°
2026-05-07 19:46 40.94013 84.33661 34452 ft 481 kts 122°
2026-05-07 19:46 40.90292 84.41017 34452 ft 481 kts 122°
2026-05-07 19:47 40.86567 84.48366 34455 ft 481 kts 122°
2026-05-07 19:47 40.82831 84.55711 34455 ft 481 kts 122°
2026-05-07 19:48 40.79090 84.63050 34454 ft 481 kts 122°
2026-05-07 19:48 40.75353 84.70368 34454 ft 481 kts 122°
2026-05-07 19:49 40.71610 84.77682 34452 ft 481 kts 123°
2026-05-07 19:49 40.67885 84.84945 34452 ft 481 kts 123°
2026-05-07 19:50 40.64134 84.92239 34451 ft 481 kts 123°
2026-05-07 19:50 40.60371 84.99542 34451 ft 481 kts 123°
2026-05-07 19:51 40.56607 85.06829 34450 ft 481 kts 123°
2026-05-07 19:51 40.52859 85.14066 34452 ft 481 kts 123°
2026-05-07 19:52 40.49086 85.21337 34456 ft 481 kts 123°
2026-05-07 19:52 40.45312 85.28590 34457 ft 480 kts 123°
2026-05-07 19:53 40.41538 85.35828 34457 ft 480 kts 123°
2026-05-07 19:53 40.37764 85.43051 34455 ft 480 kts 123°
2026-05-07 19:54 40.33981 85.50273 34460 ft 480 kts 123°
2026-05-07 19:54 40.30220 85.57435 34458 ft 480 kts 123°
2026-05-07 19:55 40.26426 85.64645 34459 ft 480 kts 124°
2026-05-07 19:55 40.22628 85.71847 34460 ft 480 kts 124°
2026-05-07 19:56 40.18822 85.79048 34464 ft 480 kts 124°
2026-05-07 19:56 40.15013 85.86239 34464 ft 480 kts 124°
2026-05-07 19:57 40.11203 85.93417 34463 ft 481 kts 124°
2026-05-07 19:57 40.07674 86.00811 34462 ft 479 kts 116°
2026-05-07 19:58 40.05204 86.08824 34476 ft 478 kts 108°
2026-05-07 19:58 40.03020 86.17046 34465 ft 479 kts 108°
2026-05-07 19:59 40.00817 86.25250 34464 ft 479 kts 109°
2026-05-07 19:59 39.98582 86.33455 34465 ft 479 kts 109°
2026-05-07 20:00 39.96334 86.41639 34464 ft 480 kts 109°
2026-05-07 20:00 39.94092 86.49769 34458 ft 480 kts 109°
2026-05-07 20:01 39.91828 86.57957 34459 ft 480 kts 109°
2026-05-07 20:01 39.89564 86.66125 34454 ft 480 kts 109°
2026-05-07 20:02 39.87291 86.74297 34456 ft 479 kts 109°
2026-05-07 20:02 39.85014 86.82456 34455 ft 479 kts 109°
2026-05-07 20:03 39.82731 86.90613 34458 ft 480 kts 109°
2026-05-07 20:03 39.80443 86.98762 34451 ft 480 kts 109°
2026-05-07 20:04 39.78148 87.06910 34455 ft 480 kts 109°
2026-05-07 20:04 39.75846 87.15058 34456 ft 480 kts 109°
2026-05-07 20:05 39.73543 87.23183 34453 ft 480 kts 109°
2026-05-07 20:05 39.71230 87.31317 34448 ft 479 kts 109°
2026-05-07 20:06 39.68916 87.39428 34447 ft 479 kts 109°
2026-05-07 20:06 39.66609 87.47490 34451 ft 479 kts 109°
2026-05-07 20:07 39.64283 87.55597 34451 ft 479 kts 109°
2026-05-07 20:07 39.61950 87.63700 34447 ft 479 kts 109°
2026-05-07 20:08 39.59610 87.71805 34452 ft 479 kts 109°
2026-05-07 20:08 39.57267 87.79893 34448 ft 479 kts 109°
2026-05-07 20:09 39.54915 87.87986 34446 ft 479 kts 109°
2026-05-07 20:10 39.51386 88.00087 34447 ft 479 kts 110°
2026-05-07 20:10 39.49022 88.08162 34449 ft 479 kts 110°
2026-05-07 20:11 39.46651 88.16233 34451 ft 479 kts 110°
2026-05-07 20:11 39.44290 88.24252 34452 ft 479 kts 110°
2026-05-07 20:12 39.41910 88.32306 34450 ft 479 kts 110°
2026-05-07 20:12 39.39524 88.40358 34448 ft 479 kts 110°
2026-05-07 20:13 39.37135 88.48395 34443 ft 479 kts 110°
2026-05-07 20:13 39.34740 88.56429 34451 ft 479 kts 110°
2026-05-07 20:14 39.32340 88.64454 34451 ft 479 kts 110°
2026-05-07 20:14 39.29946 88.72437 34453 ft 479 kts 110°
2026-05-07 20:15 39.27532 88.80462 34458 ft 480 kts 110°
2026-05-07 20:15 39.25108 88.88499 34466 ft 480 kts 110°
2026-05-07 20:16 39.22673 88.96547 34477 ft 481 kts 110°
2026-05-07 20:16 39.20237 89.04573 34484 ft 481 kts 110°
2026-05-07 20:17 39.17805 89.12562 34496 ft 482 kts 110°
2026-05-07 20:17 39.15349 89.20610 34509 ft 482 kts 110°
2026-05-07 20:18 39.12885 89.28656 34522 ft 483 kts 110°
2026-05-07 20:18 39.10411 89.36712 34544 ft 483 kts 110°
2026-05-07 20:19 39.07932 89.44761 34547 ft 484 kts 110°
2026-05-07 20:19 39.05444 89.52817 34585 ft 484 kts 110°
2026-05-07 20:20 39.02952 89.60859 34604 ft 484 kts 110°
2026-05-07 20:20 39.00456 89.68893 34624 ft 484 kts 110°
2026-05-07 20:21 38.97969 89.76876 34627 ft 484 kts 110°
2026-05-07 20:21 38.95457 89.84914 34641 ft 484 kts 110°
2026-05-07 20:22 38.92946 89.92927 34669 ft 484 kts 111°
2026-05-07 20:22 38.90424 90.00951 34676 ft 484 kts 111°
2026-05-07 20:23 38.87898 90.08966 34684 ft 485 kts 111°
2026-05-07 20:23 38.85791 90.15632 34703 ft 485 kts 111°
2026-05-07 20:24 38.82843 90.24939 34712 ft 485 kts 111°
2026-05-07 20:24 38.80711 90.31650 34727 ft 485 kts 111°
2026-05-07 20:25 38.78152 90.39660 34729 ft 485 kts 111°
2026-05-07 20:25 38.75585 90.47639 34734 ft 485 kts 111°
2026-05-07 20:26 38.73027 90.55574 34736 ft 485 kts 111°
2026-05-07 20:26 38.70438 90.63594 34738 ft 487 kts 111°
2026-05-07 20:27 38.67874 90.71620 34733 ft 488 kts 109°
2026-05-07 20:27 38.65564 90.79817 34733 ft 490 kts 109°
2026-05-07 20:28 38.63301 90.88065 34729 ft 492 kts 109°
2026-05-07 20:28 38.61013 90.96322 34722 ft 494 kts 109°
2026-05-07 20:29 38.58710 91.04544 34710 ft 495 kts 110°
2026-05-07 20:29 38.56377 91.12828 34703 ft 496 kts 110°
2026-05-07 20:30 38.54032 91.21129 34696 ft 496 kts 110°
2026-05-07 20:30 38.51685 91.29414 34691 ft 496 kts 110°
2026-05-07 20:31 38.49326 91.37719 34685 ft 497 kts 111°
2026-05-07 20:31 38.46975 91.45970 34680 ft 498 kts 111°
2026-05-07 20:32 38.44599 91.54281 34677 ft 499 kts 111°
2026-05-07 20:32 38.42205 91.62628 34676 ft 500 kts 111°
2026-05-07 20:33 38.39802 91.70981 34671 ft 502 kts 111°
2026-05-07 20:33 38.37403 91.79293 34664 ft 503 kts 112°
2026-05-07 20:34 38.34978 91.87671 34665 ft 505 kts 112°
2026-05-07 20:34 38.32537 91.96076 34656 ft 506 kts 112°
2026-05-07 20:35 38.30081 92.04508 34656 ft 508 kts 113°
2026-05-07 20:35 38.27613 92.12953 34648 ft 510 kts 113°
2026-05-07 20:36 38.25128 92.21432 34663 ft 511 kts 114°
2026-05-07 20:36 38.22646 92.29873 34654 ft 513 kts 114°
2026-05-07 20:37 38.20139 92.38377 34647 ft 514 kts 114°
2026-05-07 20:37 38.17621 92.46892 34643 ft 514 kts 114°
2026-05-07 20:38 38.14835 92.55251 34648 ft 511 kts 120°
2026-05-07 20:38 38.11769 92.63408 34634 ft 512 kts 120°
2026-05-07 20:39 38.08684 92.71571 34640 ft 513 kts 120°
2026-05-07 20:39 38.05627 92.79716 34634 ft 515 kts 120°
2026-05-07 20:40 38.02552 92.87928 34633 ft 516 kts 120°
2026-05-07 20:40 37.99461 92.96167 34628 ft 518 kts 120°
2026-05-07 20:41 37.96351 93.04429 34627 ft 520 kts 121°
2026-05-07 20:41 37.93228 93.12702 34628 ft 521 kts 121°
2026-05-07 20:42 37.90083 93.21008 34627 ft 523 kts 121°
2026-05-07 20:42 37.86929 93.29315 34622 ft 524 kts 121°
2026-05-07 20:43 37.83764 93.37632 34619 ft 525 kts 121°
2026-05-07 20:43 37.80589 93.45951 34616 ft 525 kts 121°
2026-05-07 20:44 37.77425 93.54219 34613 ft 525 kts 121°
2026-05-07 20:44 37.74232 93.62541 34610 ft 525 kts 121°
2026-05-07 20:45 37.71037 93.70845 34596 ft 525 kts 121°
2026-05-07 20:45 37.67844 93.79122 34600 ft 524 kts 121°
2026-05-07 20:46 37.64651 93.87376 34591 ft 523 kts 121°
2026-05-07 20:46 37.61454 93.95618 34588 ft 523 kts 121°
2026-05-07 20:47 37.58246 94.03866 34582 ft 522 kts 121°
2026-05-07 20:47 37.55063 94.12029 34584 ft 522 kts 121°
2026-05-07 20:48 37.51852 94.20242 34576 ft 522 kts 121°
2026-05-07 20:48 37.48639 94.28437 34573 ft 522 kts 121°
2026-05-07 20:49 37.45420 94.36629 34566 ft 522 kts 121°
2026-05-07 20:49 37.42187 94.44835 34556 ft 522 kts 121°
2026-05-07 20:50 37.38955 94.53014 34555 ft 522 kts 121°
2026-05-07 20:50 37.35734 94.61148 34550 ft 521 kts 121°
2026-05-07 20:51 37.32499 94.69294 34553 ft 521 kts 121°
2026-05-07 20:51 37.29258 94.77434 34546 ft 521 kts 121°
2026-05-07 20:52 37.26012 94.85564 34549 ft 520 kts 122°
2026-05-07 20:52 37.22762 94.93686 34544 ft 520 kts 122°
2026-05-07 20:53 37.19507 95.01798 34546 ft 520 kts 122°
2026-05-07 20:53 37.16267 95.09855 34535 ft 520 kts 122°
2026-05-07 20:54 37.13004 95.17946 34560 ft 520 kts 122°
2026-05-07 20:54 37.09739 95.26023 34553 ft 519 kts 122°
2026-05-07 20:55 37.06467 95.34096 34552 ft 519 kts 122°
2026-05-07 20:55 37.03199 95.42142 34552 ft 519 kts 122°
2026-05-07 20:56 36.99925 95.50183 34553 ft 518 kts 121°
2026-05-07 20:56 36.96711 95.58259 34553 ft 518 kts 121°
2026-05-07 20:57 36.93542 95.66352 34554 ft 518 kts 121°
2026-05-07 20:57 36.90363 95.74422 34550 ft 518 kts 121°
2026-05-07 20:58 36.87186 95.82436 34559 ft 518 kts 121°
2026-05-07 20:58 36.83975 95.90512 34553 ft 519 kts 121°
2026-05-07 20:59 36.80763 95.98577 34560 ft 519 kts 121°
2026-05-07 20:59 36.77538 96.06653 34557 ft 520 kts 121°
2026-05-07 21:00 36.74330 96.14762 34560 ft 521 kts 120°
2026-05-07 21:00 36.71136 96.22874 34561 ft 521 kts 120°
2026-05-07 21:01 36.67954 96.30926 34559 ft 521 kts 121°
2026-05-07 21:01 36.64738 96.39030 34561 ft 521 kts 121°
2026-05-07 21:02 36.61520 96.47117 34562 ft 521 kts 121°
2026-05-07 21:02 36.58298 96.55200 34567 ft 521 kts 121°
2026-05-07 21:03 36.55081 96.63274 34577 ft 521 kts 121°
2026-05-07 21:03 36.51898 96.71368 34567 ft 521 kts 120°
2026-05-07 21:04 36.48717 96.79465 34571 ft 521 kts 120°
2026-05-07 21:04 36.45528 96.87545 34568 ft 521 kts 120°
2026-05-07 21:05 36.42324 96.95632 34569 ft 521 kts 120°
2026-05-07 21:05 36.39138 97.03651 34567 ft 521 kts 120°
2026-05-07 21:06 36.35922 97.11728 34572 ft 522 kts 120°
2026-05-07 21:06 36.32699 97.19802 34570 ft 522 kts 120°
2026-05-07 21:07 36.29470 97.27869 34575 ft 523 kts 120°
2026-05-07 21:07 36.26231 97.35945 34576 ft 523 kts 120°
2026-05-07 21:08 36.23003 97.43972 34583 ft 524 kts 120°
2026-05-07 21:08 36.19743 97.52058 34593 ft 524 kts 120°
2026-05-07 21:09 36.16478 97.60140 34608 ft 525 kts 120°
2026-05-07 21:09 36.13239 97.68241 34636 ft 525 kts 120°
2026-05-07 21:10 36.10087 97.76423 34632 ft 526 kts 119°
2026-05-07 21:10 36.07484 97.83215 34655 ft 526 kts 119°
2026-05-07 21:11 36.03817 97.92707 34660 ft 526 kts 119°
2026-05-07 21:11 35.99569 98.03616 34665 ft 527 kts 119°
2026-05-07 21:12 35.96390 98.11751 34687 ft 526 kts 119°
2026-05-07 21:12 35.93198 98.19898 34681 ft 527 kts 119°
2026-05-07 21:13 35.90028 98.27982 34680 ft 527 kts 119°
2026-05-07 21:13 35.86828 98.36109 34660 ft 527 kts 120°
2026-05-07 21:14 35.83621 98.44237 34686 ft 526 kts 120°
2026-05-07 21:14 35.80414 98.52347 34681 ft 526 kts 120°
2026-05-07 21:15 35.77201 98.60451 34680 ft 526 kts 120°
2026-05-07 21:15 35.74006 98.68490 34691 ft 525 kts 120°
2026-05-07 21:16 35.70788 98.76565 34685 ft 525 kts 120°
2026-05-07 21:16 35.67559 98.84645 34682 ft 525 kts 120°
2026-05-07 21:17 35.64327 98.92718 34679 ft 526 kts 120°
2026-05-07 21:17 35.61089 99.00785 34684 ft 526 kts 120°
2026-05-07 21:18 35.57865 99.08796 34684 ft 526 kts 120°
2026-05-07 21:18 35.54616 99.16850 34666 ft 526 kts 120°
2026-05-07 21:19 35.51363 99.24894 34679 ft 525 kts 120°
2026-05-07 21:19 35.48108 99.32924 34679 ft 524 kts 120°
2026-05-07 21:20 35.44856 99.40924 34670 ft 524 kts 120°
2026-05-07 21:20 35.41619 99.48870 34673 ft 523 kts 120°
2026-05-07 21:21 35.38362 99.56847 34670 ft 523 kts 120°
2026-05-07 21:21 35.35102 99.64812 34669 ft 523 kts 120°
2026-05-07 21:22 35.31834 99.72774 34673 ft 522 kts 120°
2026-05-07 21:22 35.28568 99.80712 34664 ft 522 kts 120°
2026-05-07 21:23 35.25299 99.88643 34665 ft 522 kts 120°
2026-05-07 21:23 35.22019 99.96581 34660 ft 522 kts 120°
2026-05-07 21:24 35.18740 100.04488 34662 ft 522 kts 120°
2026-05-07 21:24 35.15473 100.12360 34663 ft 522 kts 120°
2026-05-07 21:25 35.12180 100.20271 34665 ft 522 kts 120°
2026-05-07 21:25 35.08884 100.28171 34661 ft 522 kts 120°
2026-05-07 21:26 35.05574 100.36086 34653 ft 523 kts 120°
2026-05-07 21:26 35.02262 100.43988 34656 ft 522 kts 120°
2026-05-07 21:27 34.98953 100.51865 34655 ft 522 kts 120°
2026-05-07 21:27 34.95661 100.59679 34652 ft 521 kts 120°
2026-05-07 21:28 34.92350 100.67522 34647 ft 520 kts 121°
2026-05-07 21:28 34.89037 100.75350 34663 ft 519 kts 121°
2026-05-07 21:29 34.85717 100.83177 34657 ft 519 kts 121°
2026-05-07 21:29 34.82418 100.90938 34667 ft 519 kts 121°
2026-05-07 21:30 34.79096 100.98735 34664 ft 519 kts 121°
2026-05-07 21:30 34.75769 101.06526 34669 ft 518 kts 121°
2026-05-07 21:31 34.72440 101.14302 34667 ft 518 kts 121°
2026-05-07 21:31 34.69112 101.22061 34664 ft 518 kts 121°
2026-05-07 21:32 34.65777 101.29817 34657 ft 517 kts 121°
2026-05-07 21:32 34.62441 101.37554 34664 ft 516 kts 121°
2026-05-07 21:33 34.59128 101.45223 34667 ft 516 kts 121°
2026-05-07 21:33 34.55792 101.52932 34664 ft 516 kts 121°
2026-05-07 21:34 34.52450 101.60633 34660 ft 515 kts 121°
2026-05-07 21:34 34.49103 101.68327 34662 ft 516 kts 121°
2026-05-07 21:35 34.45748 101.76025 34673 ft 516 kts 121°
2026-05-07 21:35 34.42385 101.83726 34661 ft 517 kts 121°
2026-05-07 21:36 34.39020 101.91412 34669 ft 517 kts 121°
2026-05-07 21:36 34.35646 101.99102 34659 ft 518 kts 121°
2026-05-07 21:37 34.32281 102.06752 34663 ft 517 kts 121°
2026-05-07 21:37 34.28896 102.14435 34669 ft 517 kts 121°
2026-05-07 21:38 34.25504 102.22116 34671 ft 517 kts 121°
2026-05-07 21:38 34.22131 102.29739 34658 ft 517 kts 121°
2026-05-07 21:39 34.18731 102.37406 34655 ft 517 kts 121°
2026-05-07 21:39 34.15402 102.45118 34659 ft 517 kts 120°
2026-05-07 21:40 34.12124 102.52847 34652 ft 517 kts 120°
2026-05-07 21:40 34.08837 102.60564 34644 ft 516 kts 120°
2026-05-07 21:41 34.05544 102.68247 34644 ft 516 kts 120°
2026-05-07 21:41 34.02256 102.75885 34644 ft 517 kts 121°
2026-05-07 21:42 33.98938 102.83575 34636 ft 518 kts 121°
2026-05-07 21:42 33.95611 102.91274 34636 ft 518 kts 121°
2026-05-07 21:43 33.92274 102.98980 34633 ft 519 kts 121°
2026-05-07 21:43 33.88935 103.06674 34634 ft 518 kts 121°
2026-05-07 21:44 33.85593 103.14356 34633 ft 518 kts 121°
2026-05-07 21:44 33.82245 103.22033 34637 ft 517 kts 121°
2026-05-07 21:45 33.78904 103.29680 34648 ft 516 kts 121°
2026-05-07 21:45 33.75559 103.37321 34648 ft 516 kts 121°
2026-05-07 21:46 33.72207 103.44961 34648 ft 517 kts 121°
2026-05-07 21:46 33.68849 103.52593 34643 ft 517 kts 121°
2026-05-07 21:47 33.65491 103.60210 34642 ft 515 kts 121°
2026-05-07 21:47 33.62157 103.67761 34660 ft 515 kts 121°
2026-05-07 21:48 33.58796 103.75351 34660 ft 515 kts 121°
2026-05-07 21:48 33.55424 103.82953 34680 ft 516 kts 121°
2026-05-07 21:49 33.52047 103.90547 34656 ft 516 kts 121°
2026-05-07 21:49 33.48665 103.98142 34648 ft 517 kts 122°
2026-05-07 21:50 33.45294 104.05694 34645 ft 516 kts 122°
2026-05-07 21:50 33.41897 104.13287 34637 ft 518 kts 122°
2026-05-07 21:51 33.38491 104.20871 34631 ft 515 kts 124°
2026-05-07 21:51 33.36479 104.24364 34648 ft 507 kts 136°
2026-05-07 21:51 33.33962 104.27285 34646 ft 500 kts 146°
2026-05-07 21:52 33.28073 104.31396 34655 ft 486 kts 162°
2026-05-07 21:52 33.21846 104.34589 34648 ft 487 kts 162°
2026-05-07 21:53 33.15630 104.37843 34647 ft 488 kts 161°
2026-05-07 21:53 33.09419 104.41160 34633 ft 490 kts 161°
2026-05-07 21:54 33.03179 104.44501 34628 ft 491 kts 161°
2026-05-07 21:54 32.96949 104.47826 34638 ft 492 kts 161°
2026-05-07 21:55 32.90687 104.51160 34637 ft 493 kts 161°
2026-05-07 21:55 32.84453 104.54475 34651 ft 493 kts 161°
2026-05-07 21:56 32.78109 104.57547 34648 ft 487 kts 169°
2026-05-07 21:56 32.71551 104.59077 34652 ft 477 kts 180°
2026-05-07 21:57 32.66077 104.59321 34663 ft 473 kts 184°
2026-05-07 21:57 32.59491 104.59552 34659 ft 474 kts 183°
2026-05-07 21:58 32.51815 104.59904 34654 ft 474 kts 183°
2026-05-07 21:58 32.46291 104.60151 34652 ft 474 kts 184°
2026-05-07 21:59 32.39701 104.60446 34655 ft 473 kts 184°
2026-05-07 21:59 32.33113 104.60795 34646 ft 474 kts 183°
2026-05-07 22:00 32.26519 104.61166 34639 ft 474 kts 184°
2026-05-07 22:00 32.19958 104.61528 34637 ft 476 kts 184°
2026-05-07 22:01 32.13339 104.61889 34636 ft 476 kts 184°
2026-05-07 22:01 32.06715 104.62247 34629 ft 476 kts 184°
2026-05-07 22:02 32.00097 104.62607 34624 ft 475 kts 184°
2026-05-07 22:02 31.93517 104.62964 34618 ft 472 kts 184°
2026-05-07 22:03 31.86975 104.63317 34604 ft 470 kts 184°
2026-05-07 22:03 31.80485 104.63666 34591 ft 469 kts 184°
2026-05-07 22:04 31.73969 104.63987 34601 ft 469 kts 185°
2026-05-07 22:04 31.67436 104.64237 34597 ft 470 kts 185°
2026-05-07 22:05 31.60878 104.64483 34587 ft 472 kts 185°
2026-05-07 22:05 31.54287 104.64741 34583 ft 474 kts 185°
2026-05-07 22:06 31.47675 104.65003 34578 ft 475 kts 185°
2026-05-07 22:06 31.41095 104.65266 34582 ft 476 kts 185°
2026-05-07 22:07 31.34457 104.65529 34573 ft 477 kts 185°
2026-05-07 22:07 31.27825 104.65792 34572 ft 477 kts 185°
2026-05-07 22:08 31.21180 104.66054 34574 ft 477 kts 186°
2026-05-07 22:08 31.14569 104.66315 34572 ft 478 kts 186°
2026-05-07 22:09 31.07909 104.66577 34571 ft 479 kts 186°
2026-05-07 22:09 31.01225 104.67054 34568 ft 483 kts 182°
2026-05-07 22:10 30.94513 104.67868 34569 ft 485 kts 182°
2026-05-07 22:10 30.87839 104.68651 34564 ft 485 kts 182°
2026-05-07 22:11 30.81110 104.69412 34563 ft 486 kts 182°
2026-05-07 22:11 30.74370 104.70171 34563 ft 487 kts 182°
2026-05-07 22:12 30.67609 104.70935 34561 ft 488 kts 182°
2026-05-07 22:12 30.60850 104.71698 34570 ft 488 kts 183°
2026-05-07 22:13 30.54065 104.72461 34565 ft 488 kts 183°
2026-05-07 22:13 30.47337 104.73205 34571 ft 488 kts 183°
2026-05-07 22:14 30.40562 104.73951 34563 ft 488 kts 183°
2026-05-07 22:14 30.33797 104.74697 34561 ft 488 kts 183°
2026-05-07 22:15 30.27044 104.75441 34564 ft 487 kts 183°
2026-05-07 22:15 30.20287 104.76184 34559 ft 487 kts 183°
2026-05-07 22:16 30.13579 104.76922 34557 ft 488 kts 183°
2026-05-07 22:16 30.06818 104.77663 34553 ft 488 kts 183°
2026-05-07 22:17 30.00048 104.78856 34550 ft 499 kts 174°
2026-05-07 22:17 29.93410 104.81487 34556 ft 510 kts 165°
2026-05-07 22:18 29.83649 104.86326 34548 ft 511 kts 165°
2026-05-07 22:19 29.77103 104.89518 34552 ft 511 kts 165°
2026-05-07 22:19 29.70541 104.92678 34538 ft 511 kts 165°
2026-05-07 22:20 29.63979 104.95830 34544 ft 511 kts 166°
2026-05-07 22:20 29.57404 104.98989 34533 ft 512 kts 166°
2026-05-07 22:21 29.50812 105.02150 34535 ft 512 kts 167°
2026-05-07 22:21 29.44149 105.04839 34542 ft 506 kts 171°
2026-05-07 22:22 29.37478 105.07351 34529 ft 507 kts 171°
2026-05-07 22:22 29.30779 105.09913 34530 ft 507 kts 170°
2026-05-07 22:23 29.24086 105.12489 34523 ft 507 kts 170°
2026-05-07 22:23 29.17389 105.15024 34525 ft 506 kts 171°
2026-05-07 22:24 29.10701 105.17533 34520 ft 505 kts 171°
2026-05-07 22:24 29.04018 105.20063 34517 ft 505 kts 170°
2026-05-07 22:25 28.97385 105.22599 34522 ft 505 kts 170°
2026-05-07 22:25 28.90716 105.25147 34522 ft 505 kts 170°
2026-05-07 22:26 28.84041 105.27689 34518 ft 505 kts 170°
2026-05-07 22:26 28.77379 105.30220 34524 ft 505 kts 170°
2026-05-07 22:27 28.70751 105.32735 34514 ft 504 kts 170°
2026-05-07 22:27 28.64099 105.35256 34523 ft 503 kts 170°
2026-05-07 22:28 28.57446 105.37775 34528 ft 504 kts 170°
2026-05-07 22:28 28.50774 105.40296 34528 ft 505 kts 170°
2026-05-07 22:29 28.44111 105.42811 34530 ft 505 kts 170°
2026-05-07 22:29 28.37422 105.45333 34531 ft 506 kts 170°
2026-05-07 22:30 28.30762 105.47841 34530 ft 506 kts 169°
2026-05-07 22:30 28.24080 105.50354 34533 ft 506 kts 170°
2026-05-07 22:31 28.17395 105.52865 34532 ft 506 kts 169°
2026-05-07 22:31 28.10711 105.55372 34543 ft 506 kts 169°
2026-05-07 22:32 28.03989 105.57627 34544 ft 499 kts 176°
2026-05-07 22:32 27.97184 105.58690 34558 ft 492 kts 181°
2026-05-07 22:33 27.90410 105.59707 34549 ft 495 kts 180°
2026-05-07 22:33 27.83570 105.60896 34556 ft 501 kts 175°
2026-05-07 22:34 27.76830 105.63313 34568 ft 514 kts 165°
2026-05-07 22:34 27.70417 105.67111 34576 ft 523 kts 158°